Dallas/Ft Worth, TX

12:24 PM CST on November 13, 2019 (GMT -0600)
Dallas-Fort Worth International

Weather History for KDFW - September, 2019

Change the Weather History Date:

Sunday, September 8, 2019

  Actual Average Record
Temperature  
Mean Temperature 87 °F 81 °F  
Max Temperature 99 °F 91 °F 100 °F (1998)
Min Temperature 75 °F 70 °F 55 °F (1898)
Degree Days  
Heating Degree Days 0 0  
Month to date heating degree days 0 0  
Since 1 July heating degree days 0 0  
Cooling Degree Days 22 16  
Month to date cooling degree days 173 135  
Year to date cooling degree days 2375 2317  
Growing Degree Days 37 (Base 50)    
Moisture  
Dew Point 61 °F    
Average Humidity 45    
Maximum Humidity 69    
Minimum Humidity 24    
Precipitation  
Precipitation 0.00 in 0.10 in 5.24 in (2010)
Month to date precipitation 0.00 0.76  
Year to date precipitation 27.13 24.87  
Sea Level Pressure  
Sea Level Pressure 29.90 in    
Wind  
Wind Speed 10 mph ()    
Max Wind Speed 23 mph    
Max Gust Speed 29 mph    
Visibility 10.0 miles    
Events      
T = Trace of Precipitation, MM = Missing Value Source: Averaged Metar Reports

Daily Weather History Graph

Daily Weather History Graph

Search for Another Location

Airport or City:

Astronomy

Sep. 08, 2019 Rise Set
Actual Time 7:07 AM CDT 7:44 PM CDT
Civil Twilight 6:42 AM CDT 8:08 PM CDT
Nautical Twilight 6:12 AM CDT 8:38 PM CDT
Astronomical Twilight 5:42 AM CDT 9:08 PM CDT
Moon 4:38 PM CDT (9/8) 2:03 AM CDT (9/8)
Length of Visible Light 13h 26m
Length of Day
12h 36m
Waxing Gibbous, 75% of the Moon is Illuminated
Sep 8
Waxing Gibbous
Sep 13
Full
Sep 21
Last Quarter
Sep 28
New
Oct 5
First Quarter

Hourly Weather History & Observations

Time (CDT) Temp. Heat Index Dew Point Humidity Pressure Visibility Wind Dir Wind Speed Gust Speed Precip Events Conditions
12:53 AM 82.9 °F 82.4 °F 57.0 °F 41% 29.91 in 10.0 mi South 9.2 mph - N/A   Clear
1:53 AM 82.0 °F 82.1 °F 59.0 °F 45% 29.91 in 10.0 mi South 9.2 mph - N/A   Clear
2:53 AM 79.0 °F - 60.1 °F 52% 29.90 in 10.0 mi South 8.1 mph - N/A   Clear
3:53 AM 79.0 °F - 61.0 °F 54% 29.90 in 10.0 mi South 10.4 mph - N/A   Clear
4:53 AM 78.1 °F - 62.1 °F 58% 29.90 in 10.0 mi South 11.5 mph - N/A   Clear
5:53 AM 77.0 °F - 63.0 °F 62% 29.91 in 10.0 mi South 11.5 mph - N/A   Clear
6:53 AM 75.9 °F - 64.0 °F 67% 29.91 in 10.0 mi South 10.4 mph - N/A   Clear
7:53 AM 77.0 °F - 64.9 °F 66% 29.94 in 10.0 mi SSW 11.5 mph - N/A   Partly Cloudy
8:53 AM 80.1 °F 82.3 °F 66.9 °F 64% 29.94 in 10.0 mi SSW 13.8 mph - N/A   Partly Cloudy
9:53 AM 82.9 °F 85.8 °F 68.0 °F 60% 29.95 in 10.0 mi SW 11.5 mph - N/A   Partly Cloudy
10:53 AM 87.1 °F 90.6 °F 68.0 °F 53% 29.96 in 10.0 mi SW 11.5 mph - N/A   Partly Cloudy
11:53 AM 91.0 °F 93.0 °F 64.9 °F 42% 29.95 in 10.0 mi SSW 13.8 mph 19.6 mph N/A   Partly Cloudy
12:53 PM 91.9 °F 92.9 °F 63.0 °F 38% 29.93 in 10.0 mi SSW 9.2 mph 16.1 mph N/A   Partly Cloudy
1:53 PM 93.9 °F 94.0 °F 61.0 °F 33% 29.91 in 10.0 mi SSE 10.4 mph - N/A   Partly Cloudy
2:53 PM 97.0 °F 97.4 °F 61.0 °F 30% 29.89 in 10.0 mi South 9.2 mph 21.9 mph N/A   Partly Cloudy
3:53 PM 99.0 °F 98.6 °F 59.0 °F 26% 29.86 in 10.0 mi South 17.3 mph 23.0 mph N/A   Partly Cloudy
4:53 PM 98.1 °F 96.4 °F 55.9 °F 24% 29.85 in 10.0 mi SSE 16.1 mph 25.3 mph N/A   Partly Cloudy
5:53 PM 97.0 °F 96.1 °F 57.9 °F 27% 29.83 in 10.0 mi South 16.1 mph - N/A   Partly Cloudy
6:53 PM 95.0 °F 94.0 °F 57.9 °F 29% 29.83 in 10.0 mi South 17.3 mph 26.5 mph N/A   Partly Cloudy
7:53 PM 93.0 °F 92.0 °F 57.9 °F 31% 29.84 in 10.0 mi South 12.7 mph - N/A   Partly Cloudy
8:53 PM 90.0 °F 89.7 °F 60.1 °F 37% 29.86 in 10.0 mi SSE 10.4 mph - N/A   Partly Cloudy
9:53 PM 86.0 °F 85.7 °F 60.1 °F 41% 29.88 in 10.0 mi SSE 9.2 mph - N/A   Clear
10:53 PM 84.0 °F 84.0 °F 60.1 °F 44% 29.90 in 10.0 mi SSE 8.1 mph - N/A   Clear
11:53 PM 84.0 °F 84.0 °F 60.1 °F 44% 29.90 in 10.0 mi SSE 8.1 mph - N/A   Clear